www.pogodaiklimat.ru

Погода и климат >> Архив погоды >> Бразилия >> Сан-Паулу >> Ориньюс


ПОГОДА в Ориньюсе

  • Прогноз погоды в Ориньюсе
  • Монитор погоды в Ориньюсе

АРХИВ ПОГОДЫ в Ориньюсе

Время (UTC), дата Ветер
(напр.,м/с)
 
Видим.   Явления Облачность Т
(С)
Тd
(С)
f
(%)
Тe
(С)
Тes
(С)
Комфортность P
(гПа)
Po
(гПа)
Тmin
(С)
Tmax
(С)
R
(мм)
R24
(мм)
S
(см)
19 16.07 Ю 2
{3}
н/о н/о +22.2 +7.4 38 +23 +23 комфорт 1025.7 974.4
20 16.07 Ю 1
{3}
н/о н/о +20.7 +6.3 39 +23 +23 комфорт 1026.3 974.7
21 16.07 Ю 1
{3}
н/о н/о +18.8 +8.0 49 +21 +21 комфорт 1027.1 975.1
22 16.07 Ю 1
{2}
н/о н/о +17.7 +7.8 52 +19 +19 1027.8 975.6
23 16.07 Ю 1
{3}
н/о н/о +17.5 +6.7 49 +19 +19 1028.5 976.2
00 17.07 В 1
{4}
н/о н/о +15.1 +10.1 72 +16 +16 1030.2 977.4
01 17.07 ЮВ 1
{4}
н/о н/о +13.9 +9.0 72 +14 +14 1031.4 978.3
02 17.07 В 1
{5}
н/о н/о +12.8 +8.4 75 +14 +14 1032.2 978.9
03 17.07 В 1
{4}
н/о н/о +12.0 +7.5 74 +12 +12 1032.8 979.3
04 17.07 СВ 1
{3}
н/о н/о +10.8 +5.5 70 +12 +12 1033.6 979.9
05 17.07 СВ 1
{3}
н/о н/о +10.1 +4.6 69 +11 +11 1033.6 979.7
06 17.07 С 1
{2}
н/о н/о +8.8 +4.9 76 +9 +9 1033.4 979.3
07 17.07 В 1
{3}
н/о н/о +9.5 +5.7 77 +10 +10 1032.5 978.6
08 17.07
{3}
н/о н/о +8.2 +5.6 84 1033.3 979.1
09 17.07 штиль 0
{2}
н/о н/о +7.9 +5.8 87 +7 +7 1033.9 979.6
10 17.07 штиль 0
{1}
н/о н/о +7.6 +5.9 89 +7 +7 1033.9 979.6
11 17.07 штиль 0
{1}
н/о н/о +8.3 +7.0 92 +7 +7 1034.8 980.5
12 17.07 штиль 0
{1}
н/о н/о +12.3 +8.6 78 +12 +12 1034.9 981.4
13 17.07 СВ 1
{3}
н/о н/о +14.6 +8.6 67 +16 +16 1035.1 982.0
14 17.07 В 2
{4}
н/о н/о +16.7 +8.9 60 +17 +17 1034.4 981.7
15 17.07 ЮВ 2
{5}
н/о н/о +19.0 +9.5 54 +20 +20 1033.3 981.1
16 17.07 В 2
{5}
н/о н/о +18.0 +8.7 55 +19 +19 1032.6 980.2
17 17.07 ЮВ 2
{6}
н/о н/о +19.5 +9.6 53 +21 +21 комфорт 1031.8 979.7
18 17.07 ЮВ 2
{5}
н/о н/о +18.6 +9.3 55 +20 +20 1031.6 979.4
19 17.07 В 1
{4}
н/о н/о +18.6 +9.3 55 +20 +20 1031.5 979.3
21 17.07 В 1
{4}
н/о н/о +15.9 +9.3 65 +17 +17 1032.2 979.5
22 17.07 штиль 0
{3}
н/о н/о +14.6 +9.4 71 +14 +14 1032.5 979.5
23 17.07 ЮВ 1
{3}
н/о н/о +14.2 +9.8 75 +15 +15 1032.6 979.5
00 18.07 ЮВ 1
{4}
н/о н/о +13.9 +10.2 78 +14 +14 1032.9 979.8
01 18.07 ЮВ 1
{4}
н/о н/о +13.5 +10.1 80 +14 +14 1033.2 980.0
02 18.07 ЮВ 1
{4}
н/о н/о +13.2 +10.1 81 +14 +14 1033.4 980.1
03 18.07 В 1
{3}
н/о н/о +12.1 +9.7 85 +13 +13 1033.5 980.0
04 18.07 СВ 1
{2}
н/о н/о +11.6 +9.6 88 +12 +12 1033.4 979.8
06 18.07 В 1
{4}
н/о н/о +12.2 +9.8 85 +12 +12 1031.8 978.4
07 18.07 ЮВ 1
{4}
н/о н/о +12.1 +9.6 85 +12 +12 1031.5 978.1
08 18.07 В 1
{4}
н/о н/о +12.0 +9.7 86 +12 +12 1031.4 978.0
09 18.07 СВ 1
{3}
н/о н/о +11.2 +9.4 89 +12 +12 1032.1 978.5
10 18.07 штиль 0
{2}
н/о н/о +10.0 +9.0 93 +9 +9 1032.7 978.9
11 18.07 штиль 0
{1}
н/о н/о +10.3 +9.4 94 +9 +9 1033.6 979.8
12 18.07 СВ 1
{2}
н/о н/о +14.1 +11.4 84 +15 +15 1033.5 980.4
13 18.07 В 1
{3}
н/о н/о +17.1 +10.7 66 +18 +18 1033.6 981.0
14 18.07 СВ 1
{3}
н/о н/о +19.8 +10.4 55 +22 +22 комфорт 1032.8 980.7
15 18.07 В 1
{4}
н/о н/о +21.1 +10.4 50 +23 +23 комфорт 1031.7 979.9
16 18.07 В 1
{4}
н/о н/о +23.2 +10.3 44 +25 +25 комфорт 1030.5 979.1
17 18.07 В 1
{3}
н/о н/о +24.0 +10.7 43 +25 +25 комфорт 1029.6 978.4
18 18.07 ЮВ 1
{3}
н/о н/о +24.1 +10.3 42 +25 +25 комфорт 1028.7 977.6
19 18.07 ЮВ 1
{3}
н/о н/о +23.6 +9.8 42 +25 +25 комфорт 1028.5 977.3
20 18.07 ЮВ 1
{3}
н/о н/о +21.8 +10.1 47 +23 +23 комфорт 1029.4 977.8
21 18.07 штиль 0
{3}
н/о н/о +20.0 +9.8 52 +21 +21 комфорт 1029.9 978.0
22 18.07 В 1
{2}
н/о н/о +18.3 +9.6 57 +20 +20 1030.3 978.1
23 18.07 штиль 0
{2}
н/о н/о +16.0 +9.8 67 +16 +16 1031.1 978.4
00 19.07 В 1
{2}
н/о н/о +16.0 +9.7 66 +17 +17 1031.7 979.0
01 19.07 В 1
{2}
н/о н/о +16.2 +12.3 78 +18 +18 1031.7 979.0
02 19.07 ЮВ 1
{3}
н/о н/о +15.8 +12.3 80 +17 +17 1032.0 979.3
03 19.07 В 1
{3}
н/о н/о +15.2 +12.0 81 +16 +16 1032.4 979.5
04 19.07 СВ 1
{3}
н/о н/о +14.6 +11.8 83 +16 +16 1032.4 979.4
05 19.07 В 1
{3}
н/о н/о +14.2 +11.6 84 +15 +15 1031.5 978.5
06 19.07 СВ 1
{4}
н/о н/о +13.9 +11.7 87 +15 +15 1031.6 978.5
07 19.07 штиль 0
{4}
н/о н/о +13.1 +11.3 89 +13 +13 1032.1 978.9
08 19.07 штиль 0
{2}
н/о н/о +12.9 +11.5 91 +12 +12 1032.2 978.9
09 19.07 штиль 0
{1}
н/о н/о +11.9 +11.0 94 +11 +11 1032.5 979.0
10 19.07 СВ 1
{2}
н/о н/о +12.2 +10.8 91 +13 +13 1032.6 979.2
11 19.07 СВ 1
{2}
н/о н/о +12.7 +11.4 92 +13 +13 1032.8 979.5
12 19.07 штиль 0
{2}
н/о н/о +15.2 +12.8 86 +15 +15 1032.9 980.0
13 19.07 В 1
{3}
н/о н/о +17.8 +12.5 71 +19 +19 1032.8 980.4
14 19.07 В 1
{3}
н/о н/о +19.6 +12.2 62 +23 +23 комфорт 1031.9 979.8
15 19.07 СВ 1
{2}
н/о н/о +19.6 +11.6 60 +22 +22 комфорт 1031.1 979.1
16 19.07 СВ 1
{3}
н/о н/о +22.2 +12.0 52 +25 +25 комфорт 1029.5 978.0
17 19.07 В 1
{3}
н/о н/о +23.9 +11.5 46 +25 +25 комфорт 1028.2 977.0
18 19.07 Ю 1
{3}
н/о н/о +24.7 +11.7 44 +26 +26 жарко 1027.4 976.4
19 19.07 штиль 0
{2}
н/о н/о +24.6 +12.0 45 +26 +26 жарко 1027.2 976.2
20 19.07 штиль 0
{2}
н/о н/о +22.9 +13.1 54 +26 +26 жарко 1027.8 976.5
21 19.07 штиль 0
{1}
н/о н/о +21.1 +13.0 60 +23 +23 комфорт 1028.4 976.8
22 19.07 штиль 0
{2}
н/о н/о +20.1 +13.2 64 +22 +22 комфорт 1028.9 977.1
23 19.07 штиль 0
{2}
н/о н/о +18.0 +12.9 72 +18 +18 1029.6 977.4
00 20.07 штиль 0
{1}
н/о н/о +17.0 +12.8 76 +17 +17 1030.0 977.6
01 20.07 штиль 0
{1}
н/о н/о +15.9 +12.8 82 +16 +16 1030.3 977.7
02 20.07 штиль 0
{1}
н/о н/о +15.3 +12.7 84 +15 +15 1030.8 978.0
03 20.07 штиль 0
{2}
н/о н/о +14.4 +12.1 86 +14 +14 1030.6 977.7
05 20.07 штиль 0
{2}
н/о н/о +13.8 +11.8 88 +13 +13 1030.1 977.1
06 20.07 штиль 0
{1}
н/о н/о +12.5 +11.0 91 +12 +12 1029.8 976.6
07 20.07 СВ 1
{1}
н/о н/о +12.3 +11.0 92 +13 +13 1029.5 976.3
08 20.07 штиль 0
{1}
н/о н/о +12.0 +10.8 92 +11 +11 1029.8 976.5
09 20.07 штиль 0
{1}
н/о н/о +11.6 +10.4 92 +11 +11 1030.2 976.8
10 20.07 штиль 0
{1}
н/о н/о +11.5 +10.4 93 +11 +11 1030.9 977.4
11 20.07 штиль 0
{1}
н/о н/о +11.8 +10.6 92 +11 +11 1031.6 978.2
12 20.07 В 1
{1}
н/о н/о +15.5 +12.3 81 +17 +17 1031.8 979.0
13 20.07 СВ 1
{3}
н/о н/о +19.4 +12.9 66 +22 +22 комфорт 1031.3 979.2
14 20.07 СВ 1
{3}
н/о н/о +22.6 +11.1 48 +25 +25 комфорт 1030.8 979.3
15 20.07 СВ 1
{3}
н/о н/о +24.7 +11.2 43 +26 +26 жарко 1029.6 978.5
16 20.07 штиль 0
{3}
н/о н/о +26.0 +10.5 38 +27 +27 жарко 1027.9 977.1
17 20.07 СВ 1
{3}
н/о н/о +26.1 +8.4 33 +26 +26 жарко 1026.9 976.2
18 20.07 штиль 0
{2}
н/о н/о +27.0 +9.8 34 +27 +27 жарко 1025.9 975.4
19 20.07 штиль 0
{3}
н/о н/о +25.2 +9.0 36 +26 +26 жарко 1026.1 975.3
20 20.07 штиль 0
{2}
н/о н/о +23.3 +10.1 43 +25 +25 комфорт 1026.2 975.0
21 20.07 штиль 0
{1}
н/о н/о +20.9 +10.5 51 +22 +22 комфорт 1026.9 975.3
22 20.07 штиль 0 н/о н/о +18.9 +10.7 59 +20 +20 1027.5 975.5
23 20.07 штиль 0
{1}
н/о н/о +17.3 +11.3 68 +17 +17 1027.9 975.6
00 21.07 штиль 0
{1}
н/о н/о +16.3 +11.5 73 +16 +16 1028.5 976.0
01 21.07 штиль 0
{1}
н/о н/о +15.3 +11.8 80 +15 +15 1029.0 976.3
02 21.07 штиль 0 н/о н/о +13.9 +11.4 85 +14 +14 1029.3 976.4
03 21.07 штиль 0
{1}
н/о н/о +13.5 +11.3 87 +13 +13 1029.4 976.4
04 21.07 штиль 0
{1}
н/о н/о +13.3 +11.0 86 +13 +13 1029.0 976.0
05 21.07 штиль 0
{1}
н/о н/о +12.9 +10.5 85 +12 +12 1028.8 975.7
06 21.07 штиль 0
{1}
н/о н/о +12.3 +10.1 86 +12 +12 1028.6 975.4
07 21.07 штиль 0
{1}
н/о н/о +11.2 +9.6 90 +11 +11 1028.4 975.0
08 21.07 штиль 0
{1}
н/о н/о +11.0 +9.6 91 +10 +10 1028.1 974.7
09 21.07 В 1
{1}
н/о н/о +11.3 +9.7 90 +12 +12 1028.5 975.1
10 21.07 штиль 0
{2}
н/о н/о +11.2 +9.4 89 +11 +11 1028.9 975.5
11 21.07 штиль 0
{2}
н/о н/о +12.5 +10.2 86 +12 +12 1029.4 976.2
12 21.07 СВ 1
{2}
н/о н/о +15.9 +12.0 78 +17 +17 1029.5 976.9
13 21.07 штиль 0
{2}
н/о н/о +20.0 +12.9 64 +22 +22 комфорт 1029.4 977.5
14 21.07 СВ 1
{3}
н/о н/о +22.7 +11.0 48 +25 +25 комфорт 1028.7 977.3
15 21.07 СВ 1
{3}
н/о н/о +24.4 +10.8 42 +26 +26 жарко 1027.5 976.5
16 21.07 СВ 1
{3}
н/о н/о +25.2 +10.6 40 +26 +26 жарко 1026.3 975.5
17 21.07 штиль 0
{2}
н/о н/о +28.2 +11.8 36 +29 +29 жарко 1024.6 974.3
18 21.07 СВ 1
{3}
н/о н/о +27.7 +10.0 33 +28 +28 жарко 1024.0 973.7
19 21.07 СВ 1
{3}
н/о н/о +26.2 +9.1 34 +27 +27 жарко 1023.9 973.3
20 21.07 штиль 0
{3}
н/о н/о +23.8 +11.9 47 +25 +25 комфорт 1024.4 973.4
21 21.07 штиль 0
{1}
н/о н/о +21.1 +12.0 56 +23 +23 комфорт 1025.3 973.8
22 21.07 штиль 0 н/о н/о +19.4 +11.6 61 +20 +20 1025.9 974.1
23 21.07 штиль 0 н/о н/о +17.6 +11.9 69 +18 +18 1027.0 974.8
00 22.07 штиль 0
{1}
н/о н/о +16.7 +11.8 73 +17 +17 1027.5 975.1
01 22.07 штиль 0
{1}
н/о н/о +15.3 +11.8 80 +15 +15 1028.0 975.4
02 22.07 штиль 0
{1}
н/о н/о +14.6 +11.7 83 +14 +14 1028.4 975.6
03 22.07 штиль 0
{1}
н/о н/о +14.1 +11.4 84 +14 +14 1028.3 975.4
04 22.07 штиль 0
{1}
н/о н/о +13.3 +11.2 87 +13 +13 1028.3 975.3
05 22.07 СВ 1
{2}
н/о н/о +13.2 +11.3 88 +14 +14 1028.2 975.2
06 22.07 штиль 0
{1}
н/о н/о +12.8 +11.2 90 +12 +12 1027.9 974.8
07 22.07 штиль 0
{2}
н/о н/о +12.9 +11.3 90 +12 +12 1027.9 974.8
08 22.07 штиль 0
{1}
н/о н/о +12.2 +10.6 90 +12 +12 1028.2 975.0
09 22.07 штиль 0
{1}
н/о н/о +12.0 +10.6 91 +11 +11 1028.5 975.3
10 22.07 штиль 0
{1}
н/о н/о +12.3 +10.8 91 +12 +12 1029.1 975.9
11 22.07 штиль 0
{1}
н/о н/о +13.6 +12.0 90 +13 +13 1029.7 976.7
12 22.07 штиль 0
{1}
н/о н/о +16.6 +13.3 81 +16 +16 1029.8 977.3
13 22.07 СВ 1
{1}
н/о н/о +20.2 +13.2 64 +24 +24 комфорт 1029.8 977.9
14 22.07 СВ 2
{4}
н/о н/о +23.8 +12.8 50 +26 +26 жарко 1028.8 977.6
15 22.07 СВ 1
{4}
н/о н/о +24.0 +12.7 49 +26 +26 жарко 1028.1 977.0
16 22.07 СВ 1
{3}
н/о н/о +26.2 +12.4 42 +28 +28 жарко 1026.5 975.8
17 22.07 С 1
{3}
н/о н/о +27.6 +11.4 36 +28 +28 жарко 1025.4 975.0
18 22.07 штиль 0
{2}
н/о н/о +27.2 +12.3 40 +29 +29 жарко 1024.8 974.4
19 22.07 штиль 0
{2}
н/о н/о +26.0 +13.0 45 +28 +28 жарко 1025.2 974.5
20 22.07 штиль 0
{2}
н/о н/о +24.8 +14.1 51 +27 +27 жарко 1025.4 974.5
21 22.07 штиль 0 н/о н/о +21.8 +13.9 61 +25 +25 комфорт 1026.1 974.7
22 22.07 штиль 0 н/о н/о +20.5 +13.8 65 +23 +23 комфорт 1026.9 975.2
23 22.07 штиль 0 н/о н/о +19.6 +13.8 69 +21 +21 комфорт 1027.6 975.7
00 23.07 штиль 0 н/о н/о +18.4 +13.9 75 +19 +19 1028.2 976.1
01 23.07 штиль 0
{1}
н/о н/о +18.1 +13.6 75 +18 +18 1028.9 976.7
02 23.07 штиль 0
{2}
н/о н/о +17.1 +13.7 80 +17 +17 1029.3 976.9
03 23.07 штиль 0
{1}
н/о н/о +15.9 +13.2 84 +16 +16 1029.4 976.8
04 23.07 штиль 0
{1}
н/о н/о +15.2 +12.9 86 +15 +15 1029.3 976.6
05 23.07 штиль 0
{2}
н/о н/о +15.2 +13.0 87 +15 +15 1029.2 976.5
06 23.07 штиль 0
{1}
н/о н/о +14.6 +12.7 88 +14 +14 1029.0 976.2
07 23.07 штиль 0
{1}
н/о н/о +14.4 +12.5 88 +14 +14 1029.0 976.2
08 23.07 штиль 0
{1}
н/о н/о +14.4 +12.6 89 +14 +14 1029.0 976.2
09 23.07 штиль 0
{1}
н/о н/о +14.1 +12.3 89 +14 +14 1029.6 976.7
10 23.07 штиль 0
{1}
н/о н/о +13.8 +12.0 89 +13 +13 1030.1 977.1
11 23.07 штиль 0
{1}
н/о н/о +14.0 +12.5 91 +14 +14 1030.7 977.7
12 23.07 штиль 0
{1}
н/о н/о +18.2 +13.6 75 +18 +18 1030.5 978.3
13 23.07 СВ 1
{2}
н/о н/о +22.2 +14.4 61 +25 +25 комфорт 1029.8 978.3
14 23.07 С 1
{2}
н/о н/о +24.8 +13.1 48 +27 +27 жарко 1029.0 978.0
15 23.07 СВ 1
{2}
н/о н/о +28.5 +14.2 42 +31 +31 душно 1027.1 976.8
17 23.07 С 1
{2}
н/о н/о +29.7 +11.2 32 +30 +30 жарко 1024.7 974.7
18 23.07 С 1
{3}
н/о н/о +29.2 +10.3 31 +29 +29 жарко 1024.2 974.1
19 23.07 штиль 0
{2}
н/о н/о +28.3 +10.5 33 +29 +29 жарко 1024.2 974.0

 

Местоположение метеостанции Ориньюс (Сан-Паулу, Бразилия): широта -22.95 долгота -49.90 высота над уровнем моря 450 м.

В архиве по умолчанию представлена погода в Ориньюсе за последнюю неделю. Архивные данные за месяц целиком и за предыдущие месяцы, начиная с января 2011 года, Вы можете получить, выбрав интересующий диапазон дат из раскрывающегося списка и нажав кнопку "Ввод!".


*Определитесь, кто Вы:
робот инопланетянин человек

Внимание! Время в таблицах - всемирное. Для получения местного времени необходимо прибавить поправку, которая равна -3 ч.

Смотрите также архив погоды в соседних городах и на ближайших метеорологических станциях:

Погода в Хоаким-Таворе (Парана, Бразилия) (62 км)
Погода в Нова-Фатиме (Парана, Бразилия) (87 км)
Погода в Ибаити (Парана, Бразилия) (96 км)
Погода в Аваре (Сан-Паулу, Бразилия) (99 км)
Погода в Бауру (Сан-Паулу, Бразилия) (110 км)
Погода в Раншарии (Сан-Паулу, Бразилия) (127 км)
Погода в Лондрине (Парана, Бразилия) (139 км)
Погода в Линсе (Сан-Паулу, Бразилия) (143 км)
Погода в Барра-Боните (Сан-Паулу, Бразилия) (148 км)
Погода в Вентании (Парана, Бразилия) (151 км)

Пояснения к столбцам:

Ветер - указаны скорость ветра в м/с - средняя за 10 мин, порывы в срок и между сроками (в фигурных скобках) и направление, откуда дует ветер: С - северный, СВ - северо-восточный, В - восточный, ЮВ - юго-восточный, Ю - южный, ЮЗ - юго-западный, З - западный, СЗ - северо-западный.
Видимость - горизонтальная дальность видимости в метрах или километрах. При видимости от 1 до 10 км при отсутствии осадков обычно наблюдается дымка, при ухудшении видимости до 1 км и менее - туман. В сухую погоду видимость может ухудшаться дымом, пылью или мглою.
Явления - указаны атмосферные явления, наблюдавшиеся в срок или в последний час перед сроком; фигурными скобками обозначены явления, наблюдавшиеся между сроками (за 1-3 часа до срока); квадратными скобками обозначены град или гололедные отложения с указанием их диаметра в мм.
Облачность - указаны через наклонную черту общая и нижняя облачность в баллах и высота нижней границы облаков в метрах; квадратными скобками обозначены формы облаков: Ci - перистые, Cs - перисто-слоистые, Cc - перисто-кучевые, Ac - высококучевые, As - высокослоистые, Sc - слоисто-кучевые, Ns - слоисто-дождевые, Cu - кучевые, Cb - кучево-дождевые. Подробнее классификацию облаков см. в Атласе облаков (PDF).
T - Температура воздуха - температура, измеренная на высоте 2 м над землей.
Td - Температура точки росы - температура, при понижении до которой содержащийся в воздухе водяной пар достигнет насыщения.
f - Относительная влажность воздуха - влажноcть воздуха, измеренная на высоте 2 м над землей.
Te - Эффективная температура - температура, которую ощущает одетый по сезону человек в тени. Характеристика душности погоды. При расчете учитывается влияние влажности воздуха и скорости ветра на теплоощущения человека.
Tes - Эффективная температура на солнце - температура, которую ощущает человек, с поправкой на солнечный нагрев. Характеристика знойности погоды. Зависит от высоты солнца над горизонтом, облачности и скорости ветра. Ночью, в пасмурную погоду, а также при ветре 12 м/с и более поправка равна нулю.
P - Атмосферное давление - приведенное к уровню моря атмосферное давление.
Po - Атмосферное давление - измеренное на уровне метеостанции атмосферное давление.
Tmin - Минимальная температура - минимум температуры воздуха на высоте 2 м над землей.
Tmax - Максимальная температура - максимум температуры воздуха на высоте 2 м над землей.
R - Количество осадков - Количество выпавших осадков за период времени, мм. При наведении курсора мыши на число - период времени, за который выпало указанное количество осадков.
R24 - Количество осадков - Количество выпавших осадков за 24 часа, мм.
S - Снежный покров - Высота снежного покрова, см. При наведении курсора мыши на число - состояние снежного покрова и степень покрытия местности в баллах.